Weather reports worldwide

Advertisment
Plymouth, United Kingdom (3827): temperature & dewpoint: 19.09.2017 10:00:00 - 25.09.2017 10:00:00 (BST)Plymouth, United Kingdom (3827): wind speed & gusts: 19.09.2017 10:00:00 - 25.09.2017 10:00:00 (BST)Plymouth, United Kingdom (3827): wind direction: 19.09.2017 10:00:00 - 25.09.2017 10:00:00 (BST)Plymouth, United Kingdom (3827): reduced air pressure: 19.09.2017 10:00:00 - 25.09.2017 10:00:00 (BST)Plymouth, United Kingdom (3827): visibility: 19.09.2017 10:00:00 - 25.09.2017 10:00:00 (BST)Plymouth, United Kingdom (3827): precipitation: 19.09.2017 10:00:00 - 25.09.2017 10:00:00 (BST)
Date & Time tt [°C] td [°C] ff [km/h] ff [kn] fx [km/h] fx [kn] dd ppp [hPa] vv [km] rr [mm]
25.09.2017 10:00:00 14,8 12,4 16 9 - - N 1020,1 12 0,0
25.09.2017 09:00:00 13,2 12,4 18 10 - - NNW 1019,9 9 0,0
25.09.2017 08:00:00 12,0 11,6 11 6 - - N 1019,6 7 0,0
25.09.2017 07:00:00 12,1 11,5 5 3 - - NE 1018,8 9 0,0
25.09.2017 06:00:00 12,7 11,7 9 5 - - N 1018,6 8 0,0
25.09.2017 05:00:00 13,3 12,5 9 5 - - N 1018,2 8 0,0
25.09.2017 04:00:00 13,5 13,0 11 6 - - N 1018,1 13 0,0
25.09.2017 03:00:00 13,4 12,9 9 5 - - NNW 1018,2 11 0,0
25.09.2017 02:00:00 13,7 13,3 11 6 - - N 1018,2 12 0,0
25.09.2017 01:00:00 14,0 13,6 11 6 - - NNW 1018,2 11 0,0
25.09.2017 00:00:00 14,3 14,0 9 5 - - N 1018,5 8 0,0
24.09.2017 23:00:00 14,6 14,3 9 5 - - NNW 1018,4 8 0,0
24.09.2017 22:00:00 14,7 14,5 13 7 - - NNW 1018,0 7 0,0
24.09.2017 21:00:00 14,9 14,7 5 3 - - NW 1018,2 4,9 0,0
24.09.2017 20:00:00 14,8 14,6 4 2 - - WNW 1017,7 5 0,0
24.09.2017 19:00:00 15,1 14,6 4 2 - - WSW 1017,5 5 -
24.09.2017 18:00:00 15,5 15,1 9 5 - - SW 1017,2 7 0,0
24.09.2017 17:00:00 15,6 15,3 9 5 - - SSW 1017,0 0,3 0,0
24.09.2017 16:00:00 16,1 15,8 11 6 - - SE 1016,8 6 0,0
24.09.2017 15:00:00 15,6 15,5 13 7 - - SE 1016,8 3,7 0,0
24.09.2017 14:00:00 15,5 15,5 15 8 - - SSE 1016,9 1,3 0,2
24.09.2017 13:00:00 15,7 15,7 13 7 - - SSE 1016,8 1,0 0,8
24.09.2017 12:00:00 15,5 15,4 15 8 - - SSE 1016,9 2,0 1,8
24.09.2017 11:00:00 15,4 15,3 11 6 - - SE 1016,8 1,5 1,2
24.09.2017 10:00:00 15,2 15,0 9 5 - - SE 1016,7 2,3 0,0
24.09.2017 09:00:00 14,9 14,7 9 5 - - SSE 1016,5 1,9 0,0
24.09.2017 08:00:00 14,8 14,5 13 7 - - S 1016,3 4,4 0,0
24.09.2017 07:00:00 14,6 13,7 4 2 - - SE 1015,9 7 0,0
24.09.2017 06:00:00 14,8 13,8 9 5 - - SSE 1016,1 15 0,0
24.09.2017 05:00:00 14,5 13,4 9 5 - - SE 1015,6 18 0,0
24.09.2017 04:00:00 14,5 13,2 11 6 - - SE 1016,0 19 0,0
24.09.2017 03:00:00 14,1 13,5 13 7 - - SE 1016,5 10 0,0
24.09.2017 02:00:00 13,7 13,0 13 7 - - SE 1016,9 10 0,0
24.09.2017 01:00:00 14,2 13,1 15 8 - - SE 1017,1 16 0,0
24.09.2017 00:00:00 14,6 13,1 18 10 - - SE 1017,2 17 0,0
23.09.2017 23:00:00 15,1 12,8 16 9 - - SE 1017,5 15 0,0
23.09.2017 22:00:00 15,3 12,3 16 9 - - ESE 1017,6 35 0,0
23.09.2017 21:00:00 14,7 12,0 16 9 - - ESE 1017,7 26 0,0
23.09.2017 20:00:00 15,0 12,1 18 10 - - ESE 1017,8 20 0,0
23.09.2017 19:00:00 15,2 12,5 21 11 - - ESE 1017,7 16 0,0
23.09.2017 18:00:00 15,6 12,5 15 8 - - ESE 1018,0 19 0,0
23.09.2017 17:00:00 16,3 12,4 18 10 - - SE 1017,7 24 0,0
23.09.2017 16:00:00 17,0 12,3 16 9 - - SE 1018,6 18 0,0
23.09.2017 15:00:00 17,5 12,4 21 11 - - SE 1018,9 30 0,0
23.09.2017 14:00:00 17,3 12,0 22 12 - - SE 1019,3 17 0,0
23.09.2017 13:00:00 17,0 12,0 22 12 - - SSE 1019,7 29 0,0
23.09.2017 12:00:00 16,7 13,1 26 14 - - SSE 1019,8 30 0,0
23.09.2017 11:00:00 16,4 13,5 22 12 - - SSE 1020,1 17 0,0
23.09.2017 10:00:00 15,7 13,5 16 9 - - SSE 1020,1 20 0,0
23.09.2017 09:00:00 14,5 13,5 15 8 - - S 1020,1 12 0,0
23.09.2017 08:00:00 14,0 13,3 21 11 - - S 1019,9 8 0,0
23.09.2017 07:00:00 14,1 13,5 18 10 - - S 1019,6 9 0,0
23.09.2017 06:00:00 14,2 13,7 29 16 - - S 1019,5 7 0,0
23.09.2017 05:00:00 14,1 13,8 24 13 - - S 1019,6 8 0,0
23.09.2017 04:00:00 14,0 13,8 31 17 - - S 1019,7 7 0,0
23.09.2017 03:00:00 14,1 13,9 31 17 - - S 1020,1 4,9 0,2
23.09.2017 02:00:00 14,1 13,8 26 14 - - S 1020,5 7 0,0
23.09.2017 01:00:00 13,9 13,7 34 18 46 25 S 1020,6 5 0,0
23.09.2017 00:00:00 14,1 13,9 35 19 50 27 SSW 1020,9 3,8 0,2
22.09.2017 23:00:00 13,9 13,8 37 20 52 28 SSW 1020,8 2,2 0,2
22.09.2017 22:00:00 13,9 13,6 37 20 55 30 SSW 1020,6 3,1 0,4
22.09.2017 21:00:00 13,7 13,4 35 19 50 27 S 1020,5 4,6 0,0
22.09.2017 20:00:00 13,6 13,2 35 19 46 25 SSW 1020,3 6 0,2
22.09.2017 19:00:00 13,5 13,3 34 18 48 26 S 1020,6 3,2 1,0
22.09.2017 18:00:00 13,6 13,2 28 15 48 26 SSW 1020,6 3,2 1,8
22.09.2017 17:00:00 14,4 12,8 35 19 48 26 S 1020,2 11 0,2
22.09.2017 16:00:00 14,5 13,0 31 17 46 25 S 1020,6 4,9 0,2
22.09.2017 15:00:00 14,7 12,7 37 20 48 26 S 1020,6 13 0,0
22.09.2017 14:00:00 15,7 12,5 39 21 50 27 S 1020,6 14 0,0
22.09.2017 13:00:00 15,6 12,2 39 21 50 27 S 1020,5 20 0,0
22.09.2017 12:00:00 16,1 12,2 37 20 50 27 S 1020,6 22 0,0
22.09.2017 11:00:00 15,7 12,1 35 19 - - S 1020,8 30 0,0
22.09.2017 10:00:00 15,0 11,7 31 17 - - S 1020,8 17 0,0
22.09.2017 09:00:00 13,9 10,8 28 15 - - S 1020,6 22 0,0
22.09.2017 08:00:00 12,9 11,1 26 14 - - S 1020,7 30 0,0
22.09.2017 07:00:00 12,1 11,0 18 10 - - SSW 1020,4 21 0,0
22.09.2017 06:00:00 8,2 8,1 4 2 - - SE 1020,3 16 0,0
22.09.2017 05:00:00 7,0 6,6 8 4 - - NE 1020,6 17 0,0
22.09.2017 04:00:00 7,6 7,3 8 4 - - E 1020,7 16 0,2
22.09.2017 03:00:00 7,4 7,1 9 5 - - E 1020,8 20 0,0
22.09.2017 02:00:00 7,9 7,6 9 5 - - E 1021,0 11 0,0
22.09.2017 01:00:00 7,9 7,3 8 4 - - ENE 1020,8 19 0,0
22.09.2017 00:00:00 8,5 7,9 8 4 - - E 1020,6 21 0,0
21.09.2017 23:00:00 9,1 8,5 5 3 - - E 1020,5 25 0,0
21.09.2017 22:00:00 9,1 8,0 4 2 - - NNW 1020,3 20 0,0
21.09.2017 21:00:00 10,0 8,4 8 4 - - W 1019,9 24 0,0
21.09.2017 20:00:00 11,7 7,7 8 4 - - WNW 1019,5 35 0,0
21.09.2017 19:00:00 13,4 7,4 15 8 - - WNW 1018,8 18 0,0
21.09.2017 18:00:00 14,9 7,9 18 10 - - WNW 1018,1 21 0,0
21.09.2017 17:00:00 15,8 8,4 21 11 - - W 1017,5 21 0,0
21.09.2017 16:00:00 15,8 8,5 21 11 - - WNW 1017,1 23 0,0
21.09.2017 15:00:00 15,1 9,3 18 10 - - WNW 1016,4 24 0,0
21.09.2017 14:00:00 16,8 12,3 16 9 - - W 1015,8 14 0,0
21.09.2017 13:00:00 14,3 10,6 21 11 - - WNW 1015,5 16 0,0
21.09.2017 12:00:00 15,0 11,9 16 9 - - WNW 1014,8 40 0,0
21.09.2017 11:00:00 14,6 12,3 15 8 - - WNW 1014,1 28 0,0
21.09.2017 10:00:00 14,1 12,7 13 7 - - NW 1013,4 30 0,0
21.09.2017 09:00:00 13,5 12,6 21 11 - - NW 1012,4 15 0,0
21.09.2017 08:00:00 14,6 14,4 31 17 52 28 S 1011,4 4,3 0,6
21.09.2017 07:00:00 14,6 14,1 41 22 57 31 S 1011,4 4,4 0,2
21.09.2017 06:00:00 14,9 13,6 41 22 61 33 S 1011,5 9 0,0
21.09.2017 05:00:00 14,7 13,7 37 20 50 27 S 1011,9 10 0,0
21.09.2017 04:00:00 14,6 13,6 28 15 - - S 1012,3 9 0,0
21.09.2017 03:00:00 14,5 13,7 31 17 46 25 S 1012,9 11 0,0
21.09.2017 02:00:00 14,4 13,8 31 17 59 32 S 1013,4 7 0,0
21.09.2017 01:00:00 14,3 13,8 37 20 54 29 S 1013,8 6 0,0
21.09.2017 00:00:00 14,4 13,9 34 18 50 27 S 1014,2 6 0,0
20.09.2017 23:00:00 14,3 14,1 31 17 57 31 S 1014,4 5 0,0
20.09.2017 22:00:00 14,2 14,1 41 22 59 32 S 1014,7 6 0,0
20.09.2017 21:00:00 14,2 14,1 44 24 57 31 S 1015,2 6 0,2
20.09.2017 20:00:00 14,0 13,8 34 18 54 29 S 1015,4 7 0,6
20.09.2017 19:00:00 13,6 13,5 31 17 48 26 S 1015,6 2,4 3,2
20.09.2017 18:00:00 13,4 13,3 26 14 - - S 1016,3 2,0 5,4
20.09.2017 17:00:00 13,7 13,6 22 12 - - S 1016,8 2,3 5,6
20.09.2017 16:00:00 13,6 13,5 21 11 - - S 1017,4 2,0 4,0
20.09.2017 15:00:00 13,4 13,2 34 18 50 27 S 1017,7 2,9 1,6
20.09.2017 14:00:00 13,9 13,5 35 19 50 27 S 1018,2 1,8 1,4
20.09.2017 13:00:00 15,1 13,5 34 18 - - S 1018,4 13 0,0
20.09.2017 12:00:00 15,4 13,7 29 16 - - S 1018,5 14 0,0
20.09.2017 11:00:00 15,9 14,0 28 15 - - S 1018,7 15 0,0
20.09.2017 10:00:00 15,4 13,9 28 15 - - S 1018,9 16 0,0
20.09.2017 09:00:00 15,0 13,3 31 17 - - S 1018,9 16 0,0
20.09.2017 08:00:00 14,6 13,3 26 14 - - S 1019,0 18 0,0
20.09.2017 07:00:00 14,6 13,9 22 12 - - SSW 1019,2 14 0,0
20.09.2017 06:00:00 14,5 13,9 21 11 - - SSW 1019,5 16 0,0
20.09.2017 05:00:00 14,4 13,7 22 12 - - SSW 1020,0 27 0,0
20.09.2017 04:00:00 14,2 13,5 16 9 - - SSW 1020,5 17 0,0
20.09.2017 03:00:00 13,7 12,6 16 9 - - SSW 1020,9 19 0,0
20.09.2017 02:00:00 13,8 12,7 16 9 - - SSW 1021,3 15 0,0
20.09.2017 01:00:00 13,8 12,7 18 10 - - SSW 1021,5 21 0,0
20.09.2017 00:00:00 13,9 12,7 21 11 - - SSW 1021,9 28 0,0
19.09.2017 23:00:00 14,2 12,9 22 12 - - SW 1022,2 29 0,0
19.09.2017 22:00:00 14,2 13,0 21 11 - - SW 1022,5 25 0,0
19.09.2017 21:00:00 13,4 12,3 18 10 - - SW 1022,8 35 0,0
19.09.2017 20:00:00 13,7 12,2 18 10 - - SW 1022,7 40 0,0
19.09.2017 19:00:00 14,3 12,5 21 11 - - SW 1022,4 12 0,0
19.09.2017 18:00:00 14,5 12,5 21 11 - - SW 1022,4 26 0,0
19.09.2017 17:00:00 14,7 12,3 16 9 - - SSW 1022,5 28 0,0
19.09.2017 16:00:00 15,3 11,8 16 9 - - SSW 1022,9 20 0,0
19.09.2017 15:00:00 17,6 13,1 18 10 - - SW 1023,1 11 0,0
19.09.2017 14:00:00 17,2 12,0 18 10 - - SW 1023,3 21 0,0
19.09.2017 13:00:00 17,2 11,7 16 9 - - SW 1023,4 19 0,0
19.09.2017 12:00:00 16,7 12,1 16 9 - - SW 1023,3 16 0,0
19.09.2017 11:00:00 16,2 12,3 11 6 - - SW 1022,9 15 0,0
19.09.2017 10:00:00 14,4 12,0 8 4 - - SSW 1023,2 25 0,0

tt = temperature
td = dewpoint
ff = wind speed
fx = gusts
dd = wind direction
ppp = reduced air pressure
vv = visibility
rr = precipitation

Next stations